Regional Weather Roundup
Issued by NWS

Home | Current Version | Previous Version | Graphics & Text | Print | Product List | Glossary Off
Versions: 1 2 3 4 5 6 7 8 9 10 11 12 13 14 15 16 17 18 19 20 21 22 23 24 25 26 27 28 29 30 31 32 33 34 35 36 37 38 39 40 41 42 43 44 45 46 47 48 49

000
ASUS43 KDMX 272307
RWRIA

WEATHER ROUNDUP FOR IOWA
NATIONAL WEATHER SERVICE DES MOINES IA
500 PM CST THU NOV 27 2014

NOTE: "FAIR" INDICATES FEW OR NO CLOUDS BELOW 12,000 FEET WITH NO
SIGNIFICANT WEATHER AND/OR OBSTRUCTIONS TO VISIBILITY.

* - THESE STATIONS ARE NOT NWS STATIONS...THUS NOT UNDER NWS
QUALITY CONTROL.  THEY ALSO DO NOT REPORT WEATHER SUCH
AS PRECIPITATION OR FOG.

IAZ001>003-012>014-020>022-031>034-043>046-280000-
   NORTHWEST IOWA

CITY           SKY/WX    TMP DP  RH WIND       PRES   REMARKS
CARROLL *      PTCLDY    10   1  67 SE10      30.37F WCI  -3
CHEROKEE *     PTCLDY    10   5  79 SE10G16   30.32F WCI  -3
DENISON *      PTCLDY    14   1  57 SE12      30.31F WCI   0
LE MARS *      MOCLDY    14   7  73 SE10G17   30.29F WCI   1
ORANGE CITY *  PTCLDY    12   3  67 SE9       30.27F WCI   0
SHELDON *      CLOUDY    10   0  61 SE12G18   30.27F WCI  -4
SIOUX CITY     MOCLDY    19   7  59 SE16      30.29F WCI   4
SPENCER        CLOUDY     7  -1  70 SE12      30.33F WCI  -8
STORM LAKE *   CLOUDY     9   0  66 SE12      30.32F WCI  -6
$$

IAZ055>058-069>071-079>083-090>094-280000-
   SOUTHWEST IOWA

CITY           SKY/WX    TMP DP  RH WIND       PRES   REMARKS
ATLANTIC *     CLEAR     18   7  62 SE8       30.36S WCI   7
AUDUBON *      CLEAR     16   3  57 SE8       30.35F WCI   5
CLARINDA *     CLEAR     23  14  68 SE6       30.38F WCI  16
COUNCIL BLFS * MOCLDY    21  10  63 SE14      30.30F WCI   8
CRESTON *      PTCLDY    16   7  67 E9        30.37F WCI   4
HARLAN  *      PTCLDY    16   5  62 SE12      30.37F WCI   3
LAMONI         PTCLDY    20  10  65 E5        30.39F WCI  13
RED OAK *      CLOUDY    21  12  68 SE10      30.36F WCI  10
SHENANDOAH *   CLEAR     25  16  68 E9        30.36F WCI  15
$$

IAZ047>049-059>061-072>074-084-280000-
   CENTRAL IOWA

CITY           SKY/WX    TMP DP  RH WIND       PRES   REMARKS
AMES           CLOUDY     8  -2  63 E6        30.44F WCI  -2
ANKENY *       CLOUDY    10  -2  56 E7        30.44F WCI   0
CHARITON *     CLOUDY    16   5  62 NE6       30.42F WCI   7
DES MOINES     CLOUDY    14  -1  51 SE8       30.43F WCI   3
GRINNELL*      PTCLDY     5   0  78 CALM      30.44F
KNOXVILLE *    CLOUDY    12  -2  52 CALM      30.44F
MARSHALLTOWN   PTCLDY     5  -2  72 NW3       30.44F
PELLA *        CLOUDY    10   1  67 CALM      30.47F
PERRY *        CLOUDY    10   3  72 SE7       30.41F WCI   0
$$

IAZ004>006-015-016-023>025-035-036-280000-
   NORTH CENTRAL IOWA

CITY           SKY/WX    TMP DP  RH WIND       PRES   REMARKS
ALGONA *       MOCLDY     1  -6  71 SE7       30.39F WCI -11
CLARION *      MOCLDY     0  -8  71 E5        30.40F WCI -10
ESTHERVILLE    CLOUDY     1  -4  79 SE10      30.33  WCI -15
FORT DODGE *   CLOUDY     3  -4  72 E7        30.39F WCI  -9
MASON CITY     PTCLDY    -1  -6  79 CALM      30.39F
FOREST CITY *  CLEAR      1  -4  78 S3        30.38F
IOWA FALLS *     N/A      3  -2  78 CALM      30.42F
$$

IAZ007>011-017>019-026>030-037>042-050>054-066-280000-
   NORTHEAST IOWA

CITY           SKY/WX    TMP DP  RH WIND       PRES   REMARKS
CEDAR RAPIDS   CLEAR      7   3  84 W7        30.44S WCI  -5
CHARLES CITY * CLEAR      3  -6  66 NE5       30.40F WCI  -6
CLINTON *      CLEAR     12   3  67 W8        30.46R WCI   1
DECORAH *      CLEAR      7  -4  61 CALM      30.39F
DUBUQUE        CLEAR     11  -2  56 NW5       30.40R WCI   3
MONTICELLO *   CLEAR     12   1  62 W7        30.43S WCI   2
OELWEIN *      CLEAR      5  -2  72 NW6       30.42F WCI  -6
WATERLOO       CLEAR      5  -2  72 W5        30.45S WCI  -4
$$

IAZ064-065-067-068-078-280000-
   EAST CENTRAL IOWA

CITY           SKY/WX    TMP DP  RH WIND       PRES   REMARKS
DAVENPORT      CLEAR     13   1  59 NW9       30.45S WCI   1
IOWA CITY      CLEAR     12   2  64 NW7       30.49R WCI   1
MT. PLEASANT * PTCLDY    10   0  61 NW3       30.48S
MUSCATINE *    CLEAR     12   5  73 SW9       30.49R WCI   0
QUAD CITIES    CLEAR     17   2  51 NW10      30.45S WCI   5
$$

IAZ062-063-075>077-085>089-095>099-280000-
   SOUTHEAST IOWA

CITY           SKY/WX    TMP DP  RH WIND       PRES   REMARKS
BURLINGTON     PTCLDY    13   0  56 NW5       30.47S WCI   5
FAIRFIELD *    CLEAR      9  -2  61 NW5       30.48S WCI   0
FORT MADISON * CLEAR     12   1  62 NW6       30.48S WCI   3
KEOKUK *       CLEAR     16   5  62 N6        30.48R WCI   7
OSKALOOSA *      N/A      7   0  72 CALM      30.47S
CENTERVILLE *  CLOUDY    18   9  68 N3        30.45S
OTTUMWA        MOCLDY    10  -2  58 N5        30.46S WCI   2
WASHINGTON *   CLEAR      7   3  85 W7        30.48S WCI  -5
$$

ABBREVIATIONS USED IN REMARKS
   TC - TEMPERATURES IN CELSIUS
  WCI - WIND CHILL INDEX
   HX - HEAT INDEX
  VSB - VISIBILITY
$$




USA.gov is the U.S. government's official web portal to all federal, state and local government web resources and services.